Find OneWeb SL0422

NORAD ID: 51626 Int'l Des: 2022-012 Owner: ONEWEBN Country: UK Constellation: oneweb operational
LEOCIRCULARPOLARONEWEB_TYPE

当前视图

正在加载3D地球...

About OneWeb SL0422

OneWeb SL0422 (NORAD 51626) is a oneweb constellation satellite launched Feb 10, 2022 by ONEWEBN of UK. It operates in LEO, CIRCULAR, POLAR, ONEWEB_TYPE orbit with a mass of 148.00 kg.

关于 OneWeb SL0422

正在加载描述...

即将过境

Passes for default location (London). Set your location on the main map for personalized predictions.

高度历史

Loading altitude history...

两行轨道根数

1 51626C 22012E 26173.55017778 -.00000950 00000+0 -24511-2 0 1730
2 51626 87.9145 4.7916 0001294 99.4684 294.9693 13.17649214 10
Epoch: Jun 22, 2026 • Age: 23 hours

当前状态

高度 1197.0 km
速度 7.26 km/s
星下点 -2.80°S, 95.68°E
发射日期 Feb 10, 2022
运行时间 4.3 years
类型 internet

技术详情

分类 Payload
质量 148.00 kg
干质量 140.00 kg
总质量 148.00 kg
长度 1.30 m
直径 1.00 m
跨度 5.00 m
形状 Trapezoid+2 pan
制造商 ONEWUS
平台类型 ARROW
阶段状态 In Orbit
所有者/国家 ONEWEBN/UK

Most Searched